SCP
0 0 0 0 0 0 0 0 0 0 0 0 0 0 0 0 0 0 0 0 0 0 0 0 0 0 0 0 0 0 0 0 0 0 0 0 0 0 0 0 0 0 0 0
0 0 0 0 0 0 0 0 0 0 0 0 0 0 0 0 0 0 0 0 0 0 0 0 0 0 0 0 0 0 0 0 0 0 0 0 0 0 0 0 0 0 0 0
0 0 0 0 0 0 0 0 0 0 0 0 0 0 0 0 0 0 0 0 0 0 0 0 0 0 0 0 0 0 0 0 0 0 0 0 0 0 0 0 0 0 0 0
0 0 0 0 0 0 0 0 0 0 0 0 0 0 0 0 0 0 0 0 0 0 0 0 0 0 0 0 0 0 0 0 0 0 0 0 0 0 0 0 0 0 0 0
0 0 0 0 0 0 0 0 0 0 0 0 0 0 0 0 0 0 0 0 0 0 0 0 0 0 0 0 0 0 0 0 0 0 0 0 0 0 0 0 0 0 0 0
0 0 0 0 0 0 0 0 0 0 0 0 0 0 0 0 0 0 0 0 0 0 0 0 0 0 0 0 0 0 0 0 0 0 0 0 0 0 0 0 0 0 0 0
0 0 0 0 0 0 0 0 0 0 0 0 0 0 0 0 0 0 0 0 0 0 0 0 0 0 0 0 0 0 0 0 0 0 0 0 0 0 0 0 0 0 0 0
0 0 0 0 0 0 0 0 0 0 0 0 0 0 0 0 0 0 0 0 0 0 0 0 0 0 0 0 0 0 0 0 0 0 0 0 0 0 0 0 0 0 0 0
0 0 0 0 0 0 0 0 0 0 0 0 0 0 0 0 0 0 0 0 0 0 0 0 0 0 0 0 0 0 0 0 0 0 0 0 0 0 0 0 0 0 0 0
0 0 0 0 0 0 0 0 0 0 0 0 0 0 0 0 0 0 0 0 0 0 0 0 0 0 0 0 0 0 0 0 0 0 0 0 0 0 0 0 0 0 0 0
0 0 0 0 0 0 0 0 0 0 0 0 0 0 0 0 0 0 0 0 0 0 0 0 0 0 0 0 0 0 0 0 0 0 0 0 0 0 0 0 0 0 0 0
0 0 0 0 0 0 0 0 0 0 0 0 0 0 0 0 0 0 0 0 0 0 0 0 0 0 0 0 0 0 0 0 0 0 0 0 0 0 0 0 0 0 0 0
0 0 0 0 0 0 0 0 0 0 0 0 0 0 0 0 0 0 0 0 0 0 0 0 0 0 0 0 0 0 0 0 0 0 0 0 0 0 0 0 0 0 0 0
0 0 0 0 0 0 0 0 0 0 0 0 0 0 0 0 0 0 0 0 0 0 0 0 0 0 0 0 0 0 0 0 0 0 0 0 0 0 0 0 0 0 0 0
0 0 0 0 0 0 0 0 0 0 0 0 0 0 0 0 0 0 0 0 0 0 0 0 0 0 0 0 0 0 0 0 0 0 0 0 0 0 0 0 0 0 0 0
0 0 0 0 0 0 0 0 0 0 0 0 0 0 0 0 0 0 0 0 0 0 0 0 0 0 0 0 0 0 0 0 0 0 0 0 0 0 0 0 0 0 0 0
0 0 0 0 0 0 0 0 0 0 0 0 0 0 0 0 0 0 0 0 0 0 0 0 0 0 0 0 0 0 0 0 0 0 0 0 0 0 0 0 0 0 0 0
0 0 0 0 0 0 0 0 0 0 0 0 0 0 0 0 0 0 0 0 0 0 0 0 0 0 0 0 0 0 0 0 0 0 0 0 0 0 0 0 0 0 0 0
0 0 0 0 0 0 0 0 0 0 0 0 0 0 0 0 0 0 0 0 0 0 0 0 0 0 0 0 0 0 0 0 0 0 0 0 0 0 0 0 0 0 0 0
0 0 0 0 0 0 0 0 0 0 0 0 0 0 0 0 0 0 0 0 0 0 0 0 0 0 0 0 0 0 0 0 0 0 0 0 0 0 0 0 0 0 0 0
0 0 0 0 0 0 0 0 0 0 0 0 0 0 0 0 0 0 0 0 0 0 0 0 0 0 0 0 0 0 0 0 0 0 0 0 0 0 0 0 0 0 0 0
0 0 0 0 0 0 0 0 0 0 0 0 0 0 0 0 0 0 0 0 0 0 0 0 0 0 0 0 0 0 0 0 0 0 0 0 0 0 0 0 0 0 0 0
0 0 0 0 0 0 0 0 0 0 0 0 0 0 0 0 0 0 0 0 0 0 0 0 0 0 0 0 0 0 0 0 0 0 0 0 0 0 0 0 0 0 0 0
0 0 0 0 0 0 0 0 0 0 0 0 0 0 0 0 0 0 0 0 0 0 0 0 0 0 0 0 0 0 0 0 0 0 0 0 0 0 0 0 0 0 0 0
0 0 0 0 0 0 0 0 0 0 0 0 0 0 0 0 0 0 0 0 0 0 0 0 0 0 0 0 0 0 0 0 0 0 0 0 0 0 0 0 0 0 0 0
0 0 0 0 0 0 0 0 0 0 0 0 0 0 0 0 0 0 0 0 0 0 0 0 0 0 0 0 0 0 0 0 0 0 0 0 0 0 0 0 0 0 0 0
0 0 0 0 0 0 0 0 0 0 0 0 0 0 0 0 0 0 0 0 0 0 0 0 0 0 0 0 0 0 0 0 0 0 0 0 0 0 0 0 0 0 0 0
Wind_Speed
7 7 5 4 5 4 4 5 5 4 4 4 5 5 5 4 4 5 5 6 5 4 3 2 2 2 1 1 1 2 2 3 3 3 4 5 5 6 6 6 6 5 5 5
5 4 3 4 5 3 3 4 5 4 4 5 5 6 5 5 5 5 6 7 6 5 4 3 3 2 2 1 1 2 2 2 2 3 3 4 5 5 6 6 5 5 5 5
3 5 2 2 4 3 2 4 4 3 4 6 5 6 6 5 5 6 7 7 8 7 6 5 4 3 2 1 1 2 2 2 2 3 3 3 4 5 5 5 6 5 5 5
3 2 1 3 4 5 2 4 5 5 5 6 7 6 5 5 6 7 8 8 8 7 6 5 4 3 2 1 1 1 2 2 2 3 3 3 4 4 5 5 5 4 4 4
1 1 1 2 5 7 5 4 7 7 8 9 9 5 3 7 8 8 9 8 8 7 6 5 4 2 1 1 1 2 2 2 2 3 3 3 3 4 4 4 4 4 4 4
1 1 1 4 9 10 4 1 8 9 9 9 7 4 5 9 10 10 9 7 7 6 5 4 3 2 1 1 2 2 2 2 2 3 3 4 4 3 3 4 4 4 4 4
1 1 1 7 11 7 2 5 10 9 9 8 6 6 8 10 10 9 9 8 7 5 4 3 2 1 1 1 1 1 1 2 2 2 3 3 3 3 4 4 4 4 4 3
1 1 2 9 8 5 6 8 9 9 9 8 8 8 9 9 9 9 8 8 6 4 4 3 1 1 1 1 1 1 2 2 2 2 2 3 3 3 3 4 4 4 4 3
2 2 4 6 6 6 7 7 8 9 9 9 8 9 9 9 8 8 8 7 6 4 4 3 2 1 0 0 1 2 3 3 3 3 2 2 3 4 3 3 3 3 3 3
1 3 5 7 8 8 8 8 9 9 9 8 8 9 9 8 8 7 7 6 5 4 4 4 3 2 1 0 1 2 3 2 2 3 2 2 2 2 3 3 4 3 3 3
2 5 6 6 9 10 10 10 9 9 9 8 8 8 8 8 7 7 6 6 5 4 3 3 3 3 2 1 1 2 2 2 2 2 2 2 2 1 2 2 3 3 3 3
3 6 6 8 10 11 11 11 10 10 10 10 8 8 8 7 7 6 6 6 5 5 4 4 4 3 3 2 1 2 2 1 1 1 2 2 2 2 2 2 2 1 2 2
4 6 6 7 9 10 10 10 10 9 9 9 9 8 8 7 7 7 6 6 6 5 5 4 4 4 4 3 2 1 1 1 1 1 2 2 2 2 2 2 2 2 2 2
5 5 5 7 9 10 10 10 9 9 9 9 8 8 7 7 7 7 7 7 6 6 5 5 5 5 4 3 2 2 1 1 1 1 1 1 2 2 2 2 2 1 1 2
7 6 5 7 8 9 9 9 9 10 10 10 9 8 8 8 8 7 7 7 6 6 6 5 5 5 5 4 3 2 1 1 1 0 1 1 1 2 2 2 1 1 1 1
8 6 6 7 9 10 10 10 9 10 10 9 9 9 8 7 7 7 7 7 6 6 6 6 5 5 5 4 3 2 2 2 1 0 1 1 1 1 1 1 1 2 2 2
6 7 8 9 10 10 9 9 8 8 8 8 8 8 8 7 7 7 7 7 6 6 6 6 5 5 4 4 3 2 1 1 1 0 0 1 1 1 1 2 2 2 2 2
5 5 6 7 8 8 9 8 8 8 8 8 8 7 7 7 8 8 8 7 6 6 6 6 6 5 4 4 3 2 1 1 1 0 0 0 1 1 1 2 2 2 2 2
6 6 7 7 7 7 7 8 8 8 8 7 7 7 7 7 7 7 7 7 6 7 7 7 8 6 5 5 4 2 2 1 1 1 1 1 1 1 1 2 2 2 2 2
6 6 7 7 7 7 7 7 8 7 7 7 7 7 7 7 7 7 7 6 5 5 6 7 6 5 5 5 5 2 2 2 1 1 1 1 1 1 1 2 2 2 2 2
7 7 7 7 7 7 7 7 7 7 7 7 7 7 7 7 7 6 6 5 6 7 7 8 5 5 4 5 5 3 2 2 2 2 2 2 2 2 2 2 2 2 2 2
7 6 7 7 7 7 7 7 6 7 7 7 7 7 7 7 7 6 5 4 6 8 6 5 5 6 6 6 4 3 3 3 3 2 2 2 2 2 2 2 2 2 2 3
6 6 7 7 7 7 7 6 6 6 7 7 7 7 7 6 6 5 5 5 5 8 7 5 7 9 9 5 4 3 3 3 3 3 2 2 2 2 2 3 3 3 3 3
6 6 6 6 6 6 7 7 7 6 6 7 6 6 7 6 5 4 5 8 10 10 6 7 10 10 8 4 4 3 3 3 3 3 3 3 2 2 3 3 3 3 3 3
6 6 6 6 6 5 6 7 7 6 6 5 6 6 6 5 5 6 6 7 9 9 6 7 9 9 6 4 4 4 4 3 3 3 3 3 3 3 3 3 3 3 3 3
5 5 5 5 5 5 5 5 5 5 6 6 6 6 6 5 6 6 5 6 8 8 6 5 5 6 4 4 4 4 4 4 4 3 3 3 3 3 3 3 4 4 3 3
5 4 4 4 4 4 4 5 5 6 6 6 7 6 6 6 6 6 6 6 6 5 5 5 4 4 4 4 4 4 4 4 3 3 3 3 3 3 3 4 4 3 3 3
Wind_Direction
281 293 298 311 307 275 244 239 232 240 268 303 332 342 345 346 350 352 353 352 347 345 341 342 341 330 303 259 231 207 182 180 189 190 184 181 179 175 174 176 177 177 176 173
280 293 317 337 337 315 287 275 253 264 300 345 344 344 345 345 344 340 336 335 334 333 328 319 313 306 294 271 233 212 189 180 180 176 169 166 169 168 169 173 172 173 178 171
283 306 293 332 346 342 1 349 323 296 329 341 339 341 335 329 331 329 330 329 325 318 313 308 302 292 279 263 223 197 182 171 171 166 156 159 162 162 163 165 166 168 171 171
296 319 192 71 29 353 2 13 6 6 354 342 329 321 331 339 337 332 327 320 314 310 305 302 297 289 279 247 196 167 162 164 165 155 149 146 155 160 161 160 162 165 167 171
274 263 270 28 4 345 315 341 10 0 347 342 335 320 336 352 340 327 319 311 307 302 295 291 287 275 244 213 181 171 177 168 166 159 153 152 155 161 161 158 158 162 165 164
297 284 302 11 345 329 292 318 14 354 343 338 334 315 323 335 327 324 323 318 312 307 300 290 283 252 205 204 189 198 197 172 162 160 161 163 160 155 155 155 156 155 157 165
321 298 350 358 336 331 332 341 336 331 330 328 321 309 313 319 320 323 325 322 319 314 308 299 281 217 194 200 214 213 169 139 134 141 150 154 151 151 148 150 150 150 152 162
338 309 349 354 352 6 337 326 327 330 330 330 326 320 321 323 323 326 329 329 330 329 329 329 319 188 179 210 221 154 128 125 125 124 124 129 131 134 141 144 145 150 152 159
352 350 340 345 351 343 337 335 337 335 331 330 326 327 330 328 327 328 333 334 338 345 352 356 359 30 124 245 165 132 123 121 116 108 113 130 137 142 143 147 151 157 163 168
322 320 335 343 348 351 349 343 336 334 334 335 333 333 334 334 334 337 341 342 345 356 5 3 5 15 29 37 115 120 120 118 120 120 121 125 137 150 156 162 164 168 172 176
315 321 333 347 349 346 344 345 346 346 344 342 341 339 339 337 340 342 342 344 349 356 4 4 6 13 16 22 123 121 112 116 128 130 137 135 136 144 166 176 184 182 187 187
324 330 324 321 335 342 345 347 347 347 348 349 347 342 342 342 343 346 348 350 356 1 4 5 7 10 8 5 69 120 120 125 135 140 142 142 136 106 78 139 140 166 188 200
309 321 318 315 332 344 345 344 346 347 346 345 346 346 346 346 349 352 355 357 356 357 357 1 7 6 1 1 15 87 130 148 147 149 153 156 160 154 136 101 114 144 164 189
337 339 333 339 336 340 343 344 348 351 352 350 348 349 351 353 354 356 356 355 356 360 2 5 10 6 0 6 22 49 63 83 143 161 161 160 164 164 161 162 165 162 165 179
350 345 325 325 336 343 345 349 354 356 355 356 357 359 360 359 356 354 353 355 1 5 5 6 9 2 360 7 20 38 48 57 72 111 138 145 147 147 151 162 176 190 193 184
329 336 343 346 345 345 349 353 353 349 350 352 355 356 357 356 355 356 359 359 3 1 356 358 1 356 357 5 14 24 36 39 24 47 134 133 143 156 164 179 194 207 215 226
337 342 343 342 341 342 345 346 344 341 344 346 347 348 352 355 357 360 0 359 359 354 352 354 355 354 357 1 4 9 13 27 21 18 113 168 187 192 197 207 217 222 229 237
333 324 324 323 326 332 337 341 342 342 341 339 340 347 353 355 352 349 348 350 355 359 358 355 355 357 359 1 359 355 354 346 339 328 281 240 239 231 226 229 230 237 245 239
340 337 338 337 335 333 333 336 338 337 336 338 342 345 346 347 345 343 343 347 350 349 348 349 349 352 355 356 347 342 340 333 329 315 284 251 259 248 240 240 245 248 246 245
340 340 340 339 340 337 334 333 334 335 337 338 339 341 343 343 342 341 341 340 338 332 330 336 341 346 348 348 343 338 334 324 313 303 287 265 260 262 261 258 257 253 248 248
335 335 335 335 334 334 333 332 332 333 335 339 339 337 334 333 335 336 334 333 336 339 337 338 341 341 341 338 337 332 328 319 310 297 283 273 269 264 260 261 261 252 247 247
326 326 328 329 329 328 330 330 330 330 332 335 335 333 331 332 335 333 327 316 323 333 334 332 334 337 336 331 327 325 320 314 307 297 286 280 274 270 267 264 262 259 250 251
318 319 320 321 320 317 320 326 329 328 328 329 328 327 326 324 324 323 324 328 329 330 329 325 330 332 331 329 322 317 313 309 303 296 287 282 278 275 275 272 272 266 256 253
317 317 316 316 316 316 320 325 325 323 320 318 319 320 319 318 320 319 311 315 323 323 321 321 327 329 329 325 319 315 311 307 302 297 290 282 278 276 274 272 273 271 264 261
312 311 313 317 316 314 314 317 319 320 321 320 321 322 318 313 310 312 313 315 320 322 319 320 324 326 325 317 315 313 310 305 303 300 293 287 281 277 274 271 270 270 265 260
310 308 306 304 301 304 309 312 314 317 318 317 318 319 318 315 311 310 310 312 314 315 315 314 316 318 315 311 309 307 304 304 304 301 295 290 282 276 272 269 270 267 266 265
308 308 306 307 309 311 310 308 307 310 312 311 310 311 314 315 314 315 313 311 312 313 312 311 312 311 309 307 305 304 302 301 300 296 291 286 280 275 273 272 271 271 270 267